| time (UTC) | temp F | wind direction | speed MPH | gust MPH | rain 1hr in | rain 24hr in | rain mn in | humidity % | barometer mb |
| 20260502164042 | 48 | 22 | 9.0 | 15.0 | 0.00 | 0.03 | 0.00 | 61 | 1024.7 |
| 20260502163542 | 48 | 331 | 8.0 | 14.0 | 0.00 | 0.03 | 0.00 | 62 | 1024.7 |
| 20260502163055 | 47 | 34 | 7.0 | 14.0 | 0.00 | 0.03 | 0.00 | 64 | 1024.7 |
| 20260502162542 | 47 | 30 | 8.0 | 14.0 | 0.00 | 0.03 | 0.00 | 61 | 1024.7 |
| 20260502162042 | 46 | 311 | 9.0 | 14.0 | 0.00 | 0.03 | 0.00 | 64 | 1024.6 |
| 20260502161547 | 46 | 327 | 8.0 | 15.0 | 0.00 | 0.03 | 0.00 | 67 | 1024.5 |
| 20260502161047 | 46 | 19 | 9.0 | 15.0 | 0.00 | 0.03 | 0.00 | 68 | 1024.6 |
| 20260502160542 | 45 | 20 | 8.0 | 14.0 | 0.00 | 0.03 | 0.00 | 69 | 1024.7 |
| 20260502152042 | 42 | 302 | 10.0 | 15.0 | 0.00 | 0.03 | 0.00 | 76 | 1024.7 |
| 20260502151548 | 42 | 313 | 9.0 | 17.0 | 0.00 | 0.03 | 0.00 | 77 | 1024.8 |
| 20260502151042 | 42 | 352 | 12.0 | 17.0 | 0.00 | 0.03 | 0.00 | 76 | 1024.9 |
| 20260502150541 | 42 | 336 | 12.0 | 17.0 | 0.00 | 0.03 | 0.00 | 78 | 1024.9 |
| 20260502130542 | 36 | 339 | 7.0 | 12.0 | 0.00 | 0.03 | 0.00 | 92 | 1024.2 |
| 20260502123541 | 35 | 347 | 6.0 | 10.0 | 0.00 | 0.03 | 0.00 | 92 | 1023.9 |
| 20260502123059 | 35 | 341 | 4.0 | 10.0 | 0.00 | 0.03 | 0.00 | 92 | 1023.8 |
| 20260502122542 | 35 | 344 | 5.0 | 10.0 | 0.00 | 0.03 | 0.00 | 92 | 1023.7 |
| 20260502122041 | 35 | 355 | 5.0 | 10.0 | 0.00 | 0.03 | 0.00 | 92 | 1023.7 |
| 20260502121555 | 35 | 360 | 4.0 | 10.0 | 0.00 | 0.03 | 0.00 | 92 | 1023.7 |
| 20260502121043 | 35 | 22 | 5.0 | 10.0 | 0.00 | 0.03 | 0.00 | 92 | 1023.7 |
| 20260502120544 | 35 | 360 | 4.0 | 10.0 | 0.00 | 0.03 | 0.00 | 92 | 1023.7 |
| 20260502115543 | 35 | 21 | 5.0 | 8.0 | 0.00 | 0.03 | 0.00 | 92 | 1023.6 |
| 20260502115043 | 36 | 25 | 4.0 | 8.0 | 0.00 | 0.03 | 0.00 | 92 | 1023.8 |
| 20260502114549 | 36 | 54 | 4.0 | 10.0 | 0.00 | 0.03 | 0.00 | 92 | 1023.7 |
| 20260502114044 | 36 | 34 | 5.0 | 10.0 | 0.00 | 0.03 | 0.00 | 92 | 1023.8 |
| 20260502113545 | 36 | 30 | 4.0 | 9.0 | 0.00 | 0.03 | 0.00 | 92 | 1023.9 |
| 20260502113051 | 36 | 336 | 3.0 | 8.0 | 0.00 | 0.03 | 0.00 | 92 | 1024.0 |
| 20260502112542 | 36 | 343 | 3.0 | 8.0 | 0.00 | 0.03 | 0.00 | 92 | 1024.0 |
| 20260502112043 | 36 | 338 | 4.0 | 8.0 | 0.00 | 0.03 | 0.00 | 92 | 1024.1 |
| 20260502111548 | 36 | 9 | 2.0 | 7.0 | 0.00 | 0.03 | 0.00 | 92 | 1024.2 |
| 20260502111042 | 36 | 347 | 2.0 | 9.0 | 0.00 | 0.03 | 0.00 | 92 | 1024.1 |
| 20260502110543 | 36 | 13 | 4.0 | 9.0 | 0.00 | 0.03 | 0.00 | 92 | 1024.1 |
| 20260502110057 | 36 | 360 | 3.0 | 8.0 | 0.00 | 0.03 | 0.00 | 92 | 1024.1 |
| 20260502105545 | 36 | 355 | 3.0 | 8.0 | 0.00 | 0.05 | 0.00 | 91 | 1024.0 |
| 20260502105044 | 36 | 26 | 4.0 | 8.0 | 0.00 | 0.05 | 0.00 | 91 | 1023.9 |
| 20260502104552 | 36 | 14 | 3.0 | 6.0 | 0.00 | 0.05 | 0.00 | 92 | 1024.0 |
| 20260502104043 | 36 | 5 | 3.0 | 6.0 | 0.00 | 0.05 | 0.00 | 91 | 1023.9 |
| 20260502103543 | 36 | 352 | 2.0 | 5.0 | 0.00 | 0.05 | 0.00 | 91 | 1024.0 |
| 20260502103055 | 36 | 355 | 3.0 | 8.0 | 0.00 | 0.05 | 0.00 | 91 | 1023.9 |
| 20260502102545 | 36 | 13 | 4.0 | 8.0 | 0.00 | 0.05 | 0.00 | 91 | 1023.7 |
| 20260502102044 | 37 | 333 | 4.0 | 8.0 | 0.00 | 0.05 | 0.00 | 91 | 1023.7 |
| 20260502101613 | 37 | 14 | 3.0 | 7.0 | 0.00 | 0.05 | 0.00 | 90 | 1023.7 |
| 20260502101042 | 37 | 5 | 3.0 | 6.0 | 0.00 | 0.05 | 0.00 | 89 | 1023.6 |
| 20260502100544 | 37 | 5 | 4.0 | 8.0 | 0.00 | 0.05 | 0.00 | 89 | 1023.6 |
| 20260502100111 | 37 | 9 | 2.0 | 8.0 | 0.00 | 0.05 | 0.00 | 88 | 1023.6 |
| 20260502091043 | 38 | 140 | 1.0 | 3.0 | 0.00 | 0.06 | 0.00 | 85 | 1023.2 |
| 20260502090543 | 38 | 0 | 0.0 | 2.0 | 0.00 | 0.06 | 0.00 | 84 | 1023.2 |
| 20260502080103 | 38 | 163 | 1.0 | 5.0 | 0.00 | 0.11 | 0.00 | 83 | 1023.5 |
| 20260502071042 | 38 | 175 | 6.0 | 12.0 | 0.00 | 0.16 | 0.00 | 84 | 1023.8 |
| 20260502070543 | 38 | 207 | 4.0 | 7.0 | 0.00 | 0.16 | 0.00 | 85 | 1023.9 |
| 20260502070053 | 38 | 170 | 2.0 | 7.0 | 0.00 | 0.16 | 0.00 | 85 | 1023.9 |
| 20260502065542 | 38 | 163 | 2.0 | 8.0 | 0.00 | 0.16 | 0.00 | 85 | 1023.9 |
| 20260502065042 | 38 | 163 | 4.0 | 8.0 | 0.00 | 0.16 | 0.00 | 85 | 1023.8 |
| 20260502064552 | 38 | 163 | 1.0 | 10.0 | 0.00 | 0.16 | 0.00 | 85 | 1023.7 |
| 20260502064041 | 38 | 150 | 5.0 | 10.0 | 0.00 | 0.16 | 0.00 | 85 | 1023.6 |
| 20260502063541 | 38 | 128 | 5.0 | 10.0 | 0.00 | 0.16 | 0.00 | 85 | 1023.6 |
| 20260502063053 | 38 | 170 | 5.0 | 10.0 | 0.00 | 0.16 | 0.00 | 85 | 1023.6 |
| 20260502062545 | 38 | 192 | 4.0 | 10.0 | 0.00 | 0.16 | 0.00 | 86 | 1023.5 |
| 20260502062041 | 38 | 144 | 5.0 | 11.0 | 0.00 | 0.16 | 0.00 | 86 | 1023.6 |
| 20260502061554 | 38 | 166 | 5.0 | 11.0 | 0.00 | 0.16 | 0.00 | 86 | 1023.7 |
| 20260502061040 | 38 | 147 | 4.0 | 9.0 | 0.00 | 0.16 | 0.00 | 87 | 1023.5 |
| 20260502060542 | 38 | 153 | 3.0 | 5.0 | 0.00 | 0.16 | 0.00 | 87 | 1023.4 |
| 20260502060057 | 38 | 190 | 3.0 | 5.0 | 0.00 | 0.16 | 0.00 | 88 | 1023.5 |
| 20260502055542 | 38 | 244 | 0.0 | 5.0 | 0.00 | 0.16 | 0.16 | 88 | 1023.5 |
| 20260502055043 | 38 | 244 | 2.0 | 5.0 | 0.00 | 0.16 | 0.16 | 88 | 1023.4 |
| 20260502054553 | 38 | 244 | 2.0 | 4.0 | 0.00 | 0.16 | 0.16 | 88 | 1023.4 |
| 20260502054043 | 38 | 244 | 1.0 | 5.0 | 0.00 | 0.16 | 0.16 | 88 | 1023.4 |
| 20260502053543 | 38 | 244 | 2.0 | 5.0 | 0.00 | 0.16 | 0.16 | 87 | 1023.3 |
| 20260502053108 | 38 | 255 | 2.0 | 6.0 | 0.00 | 0.16 | 0.16 | 88 | 1023.3 |
| 20260502052543 | 38 | 263 | 3.0 | 6.0 | 0.00 | 0.16 | 0.16 | 88 | 1023.4 |
| 20260502052043 | 38 | 251 | 2.0 | 6.0 | 0.00 | 0.16 | 0.16 | 88 | 1023.0 |
| 20260502051552 | 38 | 252 | 2.0 | 6.0 | 0.00 | 0.16 | 0.16 | 88 | 1023.1 |
| 20260502051043 | 39 | 272 | 2.0 | 6.0 | 0.00 | 0.16 | 0.16 | 89 | 1023.1 |
| 20260502050543 | 39 | 288 | 2.0 | 6.0 | 0.00 | 0.16 | 0.16 | 89 | 1023.1 |
| 20260502050054 | 39 | 319 | 1.0 | 6.0 | 0.00 | 0.16 | 0.16 | 89 | 1022.9 |
| 20260502045543 | 39 | 319 | 2.0 | 6.0 | 0.00 | 0.16 | 0.16 | 89 | 1022.9 |
| 20260502045043 | 39 | 351 | 3.0 | 6.0 | 0.00 | 0.16 | 0.16 | 89 | 1022.8 |
| 20260502044552 | 39 | 327 | 3.0 | 6.0 | 0.00 | 0.16 | 0.16 | 89 | 1022.7 |
| 20260502044043 | 39 | 311 | 4.0 | 8.0 | 0.00 | 0.16 | 0.16 | 89 | 1022.9 |
| 20260502043543 | 39 | 318 | 3.0 | 9.0 | 0.00 | 0.16 | 0.16 | 89 | 1022.7 |
| 20260502043058 | 39 | 15 | 4.0 | 9.0 | 0.00 | 0.16 | 0.16 | 89 | 1022.7 |
| 20260502042543 | 39 | 30 | 4.0 | 9.0 | 0.00 | 0.16 | 0.16 | 88 | 1022.4 |
| 20260502042043 | 38 | 49 | 1.0 | 3.0 | 0.00 | 0.16 | 0.16 | 88 | 1022.4 |
| 20260502041549 | 38 | 173 | 1.0 | 3.0 | 0.00 | 0.16 | 0.16 | 87 | 1022.5 |
| 20260502041042 | 38 | 0 | 0.0 | 2.0 | 0.00 | 0.16 | 0.16 | 87 | 1022.6 |
| 20260502040543 | 38 | 0 | 0.0 | 3.0 | 0.00 | 0.16 | 0.16 | 87 | 1022.6 |
| 20260502040047 | 38 | 0 | 0.0 | 5.0 | 0.00 | 0.16 | 0.16 | 87 | 1022.8 |
| 20260502035543 | 38 | 173 | 1.0 | 5.0 | 0.00 | 0.26 | 0.16 | 87 | 1022.7 |
| 20260502035045 | 38 | 0 | 0.0 | 2.0 | 0.00 | 0.26 | 0.16 | 87 | 1022.7 |
| 20260502034553 | 38 | 0 | 0.0 | 3.0 | 0.00 | 0.26 | 0.16 | 86 | 1022.7 |
| 20260502034043 | 38 | 0 | 1.0 | 5.0 | 0.00 | 0.26 | 0.16 | 86 | 1022.7 |
| 20260502033543 | 38 | 173 | 2.0 | 5.0 | 0.00 | 0.26 | 0.16 | 86 | 1022.7 |
| 20260502033100 | 38 | 173 | 2.0 | 5.0 | 0.00 | 0.26 | 0.16 | 86 | 1022.5 |
| 20260502032543 | 38 | 173 | 1.0 | 9.0 | 0.00 | 0.26 | 0.16 | 86 | 1022.5 |
| 20260502032043 | 38 | 0 | 1.0 | 9.0 | 0.00 | 0.26 | 0.16 | 86 | 1022.4 |
| 20260502031553 | 38 | 164 | 3.0 | 8.0 | 0.00 | 0.26 | 0.16 | 86 | 1022.2 |
| 20260502031043 | 38 | 159 | 3.0 | 11.0 | 0.00 | 0.26 | 0.16 | 86 | 1022.1 |
| 20260502030543 | 38 | 161 | 4.0 | 11.0 | 0.00 | 0.26 | 0.16 | 86 | 1022.0 |
| 20260502030059 | 38 | 175 | 6.0 | 11.0 | 0.00 | 0.26 | 0.16 | 85 | 1021.9 |
| 20260502025543 | 38 | 113 | 4.0 | 11.0 | 0.00 | 0.26 | 0.16 | 85 | 1021.7 |
| 20260502025042 | 38 | 157 | 6.0 | 11.0 | 0.00 | 0.26 | 0.16 | 86 | 1021.5 |
| 20260502024550 | 38 | 123 | 5.0 | 10.0 | 0.00 | 0.26 | 0.16 | 85 | 1021.5 |
| 20260502024047 | 38 | 162 | 5.0 | 10.0 | 0.00 | 0.26 | 0.16 | 85 | 1021.4 |
| 20260502023543 | 38 | 177 | 5.0 | 10.0 | 0.00 | 0.26 | 0.16 | 85 | 1021.3 |
| 20260502023109 | 39 | 171 | 4.0 | 10.0 | 0.00 | 0.26 | 0.16 | 85 | 1021.1 |
| 20260502022543 | 39 | 186 | 5.0 | 9.0 | 0.00 | 0.26 | 0.16 | 85 | 1021.0 |
| 20260502022042 | 39 | 146 | 5.0 | 10.0 | 0.00 | 0.26 | 0.16 | 84 | 1020.9 |
| 20260502021550 | 39 | 194 | 5.0 | 11.0 | 0.00 | 0.26 | 0.16 | 84 | 1021.0 |
| 20260502021042 | 39 | 132 | 5.0 | 11.0 | 0.00 | 0.26 | 0.16 | 84 | 1020.8 |
| 20260502020543 | 39 | 199 | 4.0 | 14.0 | 0.00 | 0.26 | 0.16 | 83 | 1020.7 |
| 20260502020049 | 39 | 165 | 6.0 | 16.0 | 0.00 | 0.26 | 0.16 | 83 | 1020.7 |
| 20260502015543 | 40 | 186 | 7.0 | 16.0 | 0.00 | 0.26 | 0.16 | 83 | 1020.6 |
| 20260502015043 | 40 | 154 | 8.0 | 16.0 | 0.00 | 0.26 | 0.16 | 82 | 1020.4 |
| 20260502014546 | 40 | 163 | 8.0 | 14.0 | 0.00 | 0.26 | 0.16 | 82 | 1020.4 |
| 20260502014042 | 40 | 142 | 6.0 | 13.0 | 0.00 | 0.26 | 0.16 | 81 | 1020.5 |
| 20260502013543 | 41 | 184 | 7.0 | 13.0 | 0.00 | 0.26 | 0.16 | 81 | 1020.7 |
| 20260502013050 | 41 | 187 | 4.0 | 13.0 | 0.00 | 0.26 | 0.16 | 80 | 1020.7 |
| 20260502012544 | 41 | 205 | 6.0 | 13.0 | 0.00 | 0.26 | 0.16 | 79 | 1020.4 |
| 20260502012043 | 41 | 175 | 8.0 | 12.0 | 0.00 | 0.26 | 0.16 | 79 | 1020.3 |
| 20260502011556 | 41 | 171 | 6.0 | 10.0 | 0.00 | 0.26 | 0.16 | 78 | 1020.7 |
| 20260502011043 | 42 | 196 | 5.0 | 12.0 | 0.00 | 0.26 | 0.16 | 78 | 1020.7 |
| 20260502010548 | 42 | 190 | 5.0 | 12.0 | 0.00 | 0.26 | 0.16 | 78 | 1020.5 |
| 20260502010048 | 43 | 164 | 5.0 | 11.0 | 0.00 | 0.26 | 0.16 | 78 | 1020.4 |
| 20260502005543 | 43 | 194 | 4.0 | 11.0 | 0.00 | 0.26 | 0.16 | 78 | 1020.4 |
| 20260502005046 | 43 | 195 | 6.0 | 11.0 | 0.00 | 0.26 | 0.16 | 76 | 1020.3 |
| 20260502004602 | 44 | 217 | 5.0 | 11.0 | 0.01 | 0.26 | 0.16 | 75 | 1020.1 |
| 20260502004044 | 44 | 188 | 6.0 | 12.0 | 0.01 | 0.26 | 0.16 | 75 | 1020.0 |
| 20260502003543 | 44 | 166 | 6.0 | 12.0 | 0.02 | 0.26 | 0.16 | 76 | 1019.7 |
| 20260502003052 | 44 | 165 | 7.0 | 15.0 | 0.02 | 0.26 | 0.16 | 77 | 1019.5 |
| 20260502002543 | 44 | 148 | 7.0 | 15.0 | 0.03 | 0.26 | 0.16 | 78 | 1019.4 |
| 20260502002042 | 44 | 164 | 7.0 | 12.0 | 0.03 | 0.26 | 0.16 | 78 | 1019.4 |
| 20260502001548 | 45 | 134 | 3.0 | 10.0 | 0.03 | 0.26 | 0.16 | 80 | 1019.6 |
| 20260502001048 | 45 | 150 | 4.0 | 10.0 | 0.03 | 0.26 | 0.16 | 79 | 1019.5 |
| 20260502000545 | 45 | 112 | 4.0 | 11.0 | 0.03 | 0.26 | 0.16 | 80 | 1019.5 |
| 20260502000050 | 45 | 122 | 4.0 | 11.0 | 0.03 | 0.26 | 0.16 | 80 | 1019.5 |
| 20260501235544 | 45 | 163 | 4.0 | 9.0 | 0.03 | 0.26 | 0.16 | 82 | 1019.3 |
| 20260501235043 | 45 | 130 | 3.0 | 12.0 | 0.03 | 0.26 | 0.16 | 80 | 1019.5 |
| 20260501234557 | 45 | 123 | 5.0 | 12.0 | 0.02 | 0.25 | 0.15 | 78 | 1019.3 |
| 20260501234042 | 45 | 130 | 3.0 | 10.0 | 0.02 | 0.25 | 0.15 | 77 | 1019.3 |
| 20260501233541 | 46 | 96 | 5.0 | 10.0 | 0.01 | 0.24 | 0.14 | 76 | 1019.1 |
| 20260501233053 | 46 | 105 | 1.0 | 3.0 | 0.01 | 0.24 | 0.14 | 75 | 1019.8 |
| 20260501232541 | 46 | 44 | 1.0 | 2.0 | 0.00 | 0.23 | 0.13 | 71 | 1019.9 |
| 20260501232041 | 46 | 0 | 0.0 | 3.0 | 0.00 | 0.23 | 0.13 | 70 | 1020.0 |
| 20260501231559 | 47 | 0 | 0.0 | 4.0 | 0.00 | 0.23 | 0.13 | 68 | 1020.1 |
| 20260501231041 | 47 | 100 | 1.0 | 4.0 | 0.00 | 0.23 | 0.13 | 70 | 1020.0 |
| 20260501230542 | 47 | 0 | 1.0 | 7.0 | 0.00 | 0.23 | 0.13 | 70 | 1019.7 |
| 20260501230050 | 47 | 0 | 2.0 | 7.0 | 0.00 | 0.23 | 0.13 | 69 | 1019.5 |
| 20260501225544 | 47 | 117 | 1.0 | 7.0 | 0.00 | 0.23 | 0.13 | 69 | 1019.3 |
| 20260501225041 | 47 | 103 | 2.0 | 13.0 | 0.00 | 0.23 | 0.13 | 67 | 1019.1 |
| 20260501224552 | 48 | 112 | 6.0 | 14.0 | 0.00 | 0.23 | 0.13 | 65 | 1019.1 |
| 20260501224041 | 48 | 80 | 4.0 | 14.0 | 0.00 | 0.23 | 0.13 | 62 | 1018.9 |
| 20260501223541 | 49 | 90 | 5.0 | 14.0 | 0.00 | 0.23 | 0.13 | 60 | 1018.9 |
| 20260501223106 | 50 | 98 | 5.0 | 11.0 | 0.00 | 0.23 | 0.13 | 57 | 1018.8 |
| 20260501222541 | 50 | 121 | 4.0 | 11.0 | 0.00 | 0.23 | 0.13 | 56 | 1018.7 |
| 20260501222042 | 51 | 112 | 5.0 | 15.0 | 0.00 | 0.23 | 0.13 | 55 | 1018.6 |
| 20260501221550 | 51 | 122 | 8.0 | 19.0 | 0.00 | 0.23 | 0.13 | 54 | 1018.5 |
| 20260501221041 | 51 | 155 | 8.0 | 19.0 | 0.00 | 0.23 | 0.13 | 54 | 1018.5 |
| 20260501220542 | 52 | 177 | 9.0 | 19.0 | 0.00 | 0.23 | 0.13 | 53 | 1018.4 |
| 20260501220048 | 52 | 128 | 8.0 | 17.0 | 0.00 | 0.23 | 0.13 | 52 | 1018.4 |
| 20260501215542 | 53 | 120 | 10.0 | 16.0 | 0.00 | 0.23 | 0.13 | 53 | 1018.4 |
| 20260501215042 | 52 | 120 | 9.0 | 23.0 | 0.00 | 0.23 | 0.13 | 54 | 1018.3 |
| 20260501214550 | 51 | 146 | 10.0 | 23.0 | 0.00 | 0.23 | 0.13 | 56 | 1018.3 |
| 20260501214041 | 51 | 141 | 10.0 | 20.0 | 0.00 | 0.23 | 0.13 | 55 | 1018.3 |
| 20260501213541 | 51 | 136 | 8.0 | 19.0 | 0.00 | 0.23 | 0.13 | 56 | 1018.4 |
| 20260501213106 | 51 | 171 | 10.0 | 19.0 | 0.00 | 0.23 | 0.13 | 54 | 1018.4 |
| 20260501212541 | 51 | 155 | 9.0 | 18.0 | 0.00 | 0.23 | 0.13 | 55 | 1018.4 |
| 20260501212041 | 52 | 162 | 11.0 | 19.0 | 0.00 | 0.23 | 0.13 | 52 | 1018.4 |
| 20260501211547 | 53 | 180 | 7.0 | 22.0 | 0.00 | 0.23 | 0.13 | 52 | 1018.4 |
| 20260501211040 | 53 | 162 | 10.0 | 22.0 | 0.00 | 0.23 | 0.13 | 52 | 1018.3 |
| 20260501210541 | 53 | 174 | 9.0 | 22.0 | 0.00 | 0.23 | 0.13 | 52 | 1018.3 |
| 20260501210052 | 53 | 168 | 10.0 | 22.0 | 0.00 | 0.23 | 0.13 | 52 | 1018.2 |
| 20260501205542 | 54 | 174 | 9.0 | 21.0 | 0.00 | 0.23 | 0.13 | 51 | 1018.2 |
| 20260501205042 | 54 | 155 | 11.0 | 22.0 | 0.00 | 0.23 | 0.13 | 51 | 1018.3 |
| 20260501204550 | 54 | 185 | 10.0 | 22.0 | 0.00 | 0.23 | 0.13 | 50 | 1018.2 |
| 20260501204041 | 54 | 176 | 9.0 | 23.0 | 0.00 | 0.23 | 0.13 | 50 | 1018.1 |
| 20260501203541 | 55 | 179 | 12.0 | 23.0 | 0.00 | 0.23 | 0.13 | 49 | 1018.2 |
| 20260501203101 | 55 | 203 | 11.0 | 22.0 | 0.00 | 0.23 | 0.13 | 49 | 1018.2 |
| 20260501202543 | 55 | 142 | 12.0 | 24.0 | 0.00 | 0.23 | 0.13 | 49 | 1018.2 |
| 20260501202043 | 55 | 180 | 10.0 | 24.0 | 0.00 | 0.23 | 0.13 | 50 | 1018.1 |
| 20260501201551 | 55 | 209 | 10.0 | 22.0 | 0.00 | 0.23 | 0.13 | 50 | 1018.1 |
| 20260501201046 | 56 | 141 | 11.0 | 22.0 | 0.00 | 0.23 | 0.13 | 49 | 1018.2 |
| 20260501200547 | 55 | 179 | 10.0 | 22.0 | 0.00 | 0.23 | 0.13 | 51 | 1018.2 |
| 20260501200051 | 54 | 196 | 10.0 | 22.0 | 0.00 | 0.23 | 0.13 | 52 | 1018.2 |
| 20260501195543 | 53 | 196 | 10.0 | 20.0 | 0.00 | 0.23 | 0.13 | 53 | 1018.2 |
| 20260501195043 | 53 | 194 | 9.0 | 20.0 | 0.00 | 0.23 | 0.13 | 53 | 1018.3 |
| 20260501194553 | 52 | 158 | 8.0 | 14.0 | 0.00 | 0.23 | 0.13 | 54 | 1018.3 |
| 20260501194042 | 53 | 184 | 7.0 | 16.0 | 0.00 | 0.23 | 0.13 | 53 | 1018.4 |
| 20260501193545 | 53 | 148 | 8.0 | 16.0 | 0.00 | 0.23 | 0.13 | 54 | 1018.4 |
| 20260501193048 | 53 | 161 | 5.0 | 11.0 | 0.00 | 0.23 | 0.13 | 53 | 1018.3 |
| 20260501192545 | 53 | 0 | 3.0 | 11.0 | 0.00 | 0.23 | 0.13 | 55 | 1018.4 |
| 20260501192043 | 53 | 171 | 3.0 | 10.0 | 0.00 | 0.23 | 0.13 | 55 | 1018.4 |
| 20260501191550 | 53 | 103 | 3.0 | 10.0 | 0.00 | 0.23 | 0.13 | 55 | 1018.5 |
| 20260501191043 | 53 | 164 | 3.0 | 9.0 | 0.00 | 0.23 | 0.13 | 57 | 1018.5 |
| 20260501190542 | 53 | 207 | 2.0 | 10.0 | 0.00 | 0.23 | 0.13 | 56 | 1018.6 |
| 20260501190047 | 53 | 204 | 3.0 | 10.0 | 0.00 | 0.23 | 0.13 | 56 | 1018.8 |
| 20260501185543 | 53 | 201 | 5.0 | 10.0 | 0.00 | 0.23 | 0.13 | 57 | 1018.9 |
| 20260501185043 | 53 | 192 | 4.0 | 10.0 | 0.00 | 0.23 | 0.13 | 58 | 1018.8 |
| 20260501184605 | 53 | 167 | 5.0 | 10.0 | 0.00 | 0.23 | 0.13 | 60 | 1018.8 |
| 20260501184043 | 53 | 0 | 4.0 | 10.0 | 0.00 | 0.23 | 0.13 | 60 | 1018.9 |
| 20260501183543 | 52 | 206 | 3.0 | 9.0 | 0.00 | 0.23 | 0.13 | 62 | 1019.0 |
| 20260501183056 | 52 | 124 | 3.0 | 8.0 | 0.00 | 0.23 | 0.13 | 63 | 1019.1 |
| 20260501182542 | 52 | 0 | 4.0 | 8.0 | 0.00 | 0.23 | 0.13 | 64 | 1019.0 |
| 20260501182042 | 51 | 162 | 3.0 | 8.0 | 0.00 | 0.23 | 0.13 | 68 | 1019.1 |
| 20260501181554 | 50 | 166 | 2.0 | 7.0 | 0.00 | 0.23 | 0.13 | 68 | 1019.1 |
| 20260501181043 | 50 | 122 | 3.0 | 9.0 | 0.00 | 0.23 | 0.13 | 70 | 1019.1 |
| 20260501180542 | 50 | 197 | 3.0 | 10.0 | 0.00 | 0.23 | 0.13 | 70 | 1019.2 |
| 20260501180055 | 49 | 150 | 4.0 | 10.0 | 0.00 | 0.23 | 0.13 | 68 | 1019.3 |
| 20260501175543 | 49 | 135 | 4.0 | 9.0 | 0.00 | 0.23 | 0.13 | 70 | 1019.4 |
| 20260501175042 | 48 | 167 | 2.0 | 8.0 | 0.00 | 0.23 | 0.13 | 72 | 1019.4 |
| 20260501174554 | 47 | 204 | 3.0 | 8.0 | 0.00 | 0.23 | 0.13 | 73 | 1019.6 |
| 20260501174043 | 47 | 196 | 2.0 | 6.0 | 0.00 | 0.23 | 0.13 | 76 | 1019.7 |
| 20260501173545 | 46 | 210 | 3.0 | 8.0 | 0.00 | 0.23 | 0.13 | 77 | 1019.6 |
| 20260501173110 | 45 | 239 | 4.0 | 9.0 | 0.00 | 0.23 | 0.13 | 78 | 1019.5 |
| 20260501172545 | 45 | 167 | 5.0 | 9.0 | 0.00 | 0.23 | 0.13 | 79 | 1019.6 |
| 20260501172042 | 45 | 211 | 5.0 | 10.0 | 0.00 | 0.23 | 0.13 | 78 | 1019.6 |
| 20260501171552 | 45 | 207 | 5.0 | 10.0 | 0.00 | 0.23 | 0.13 | 78 | 1019.7 |